Weather in Pokrov

Russia / Vladimir Oblast     56°29′13″N   39°09′35″E
temp.,
°C
wind,
m/s
gust,
m/s
humid.,
%
clouds,
%
prec.,
mm/h
press.,
hPa
HPBL,
m
21 january, fri
fri2100:00−6s71492100 0.1 1002548
03:00−7s71494100 0.4 1002488
06:00−8s61293100 0.3 1002405
09:00−8sse61293100 0.4 1002391
12:00−7sse61193100 0.3 1002497
15:00−7se61194100 0.9 1000639
18:00−7se51194100 0.7 1000640
21:00−8se51194100 1.0 1000484
22 january, sat
sat2200:00−7se51095100 0.4 1001375
03:00−8se499691 0.6 1002215
06:00−10se4997100 0.1 1004214
09:00−9se41095100 0.1 1006320
12:00−7ese5994100 0.1 1008400
15:00−7ese4894100 0.3 1010421
18:00−8ese489685 0.1 1013232
21:00−9ese369771 0.3 1015120
23 january, sun
sun2300:00−14ese2210095 0.1 101831
03:00−15ese2210081 0.1 102010
06:00−18se1110099 0.0 10229
09:00−17se1110090 0.1 102512
12:00−10s119471 0.0 102789
15:00−10nne119615 0.0 102910
18:00−16ene0010061 0.0 10329
21:00−17nw1110071 0.0 10349
24 january, mon
mon2400:00−18se1110080 0.0 10369
03:00−19nne1110087 0.0 10379
06:00−19nne2210099 0.0 103812
09:00−20ese22100100 0.0 103914
12:00−10ese239561 0.0 103899
15:00−10ene21965 0.0 103720
18:00−17ese229962 0.0 103712
21:00−17se2210084 0.0 103611
25 january, tue
tue2500:00−17s22100100 0.0 103430
03:00−17s34100100 0.0 103253
06:00−16s3610096 0.0 102974
09:00−17ssw49100100 0.0 1028121
12:00−12ssw599580 0.0 1026194
15:00−10s5119326 0.0 1023291
18:00−11ssw5139579 0.0 1022280
21:00−13ssw5129690 0.0 1020248